Time,TemperatureF,DewpointF,PressureIn,WindDirection,WindDirectionDegrees,WindSpeedMPH,WindSpeedGustMPH,Humidity,HourlyPrecipIn,Conditions,Clouds,dailyrainin,SoftwareType,DateUTC
2013-07-02 00:01:00,75.0,49.0,-100.00,East,82,5.0,7.0,40,0.00,,,0.00,,2013-07-02 06:01:00,
2013-07-02 00:11:00,75.0,49.0,-100.00,East,82,5.0,7.0,40,0.00,,,0.00,,2013-07-02 06:11:00,
2013-07-02 00:33:00,74.0,50.0,-100.00,NE,34,6.0,8.0,42,0.00,,,0.00,,2013-07-02 06:33:00,
2013-07-02 00:43:00,74.0,50.0,-100.00,NE,34,6.0,8.0,42,0.00,,,0.00,,2013-07-02 06:43:00,
2013-07-02 01:01:00,76.0,45.0,-100.00,NNE,20,12.0,15.0,32,0.00,,,0.00,,2013-07-02 07:01:00,
2013-07-02 01:11:00,72.0,45.0,-100.00,SSE,150,1.0,2.0,38,0.00,,,0.00,,2013-07-02 07:11:00,
2013-07-02 01:33:00,75.0,44.0,-100.00,North,349,4.0,5.0,34,0.00,,,0.00,,2013-07-02 07:33:00,
2013-07-02 01:44:00,73.0,45.0,-100.00,NW,318,4.0,4.0,37,0.00,,,0.00,,2013-07-02 07:44:00,
2013-07-02 02:02:00,73.0,45.0,-100.00,NW,318,4.0,4.0,37,0.00,,,0.00,,2013-07-02 08:02:00,
2013-07-02 02:12:00,69.0,46.0,-100.00,NNW,330,4.0,4.0,43,0.00,,,0.00,,2013-07-02 08:12:00,
2013-07-02 02:22:00,70.0,44.0,-100.00,NW,304,6.0,7.0,39,0.00,,,0.00,,2013-07-02 08:22:00,
2013-07-02 02:33:00,70.0,44.0,-100.00,NW,304,6.0,7.0,39,0.00,,,0.00,,2013-07-02 08:33:00,
2013-07-02 02:44:00,69.0,43.0,-100.00,WNW,287,3.0,4.0,39,0.00,,,0.00,,2013-07-02 08:44:00,
2013-07-02 03:01:00,70.0,45.0,-100.00,NW,322,5.0,6.0,41,0.00,,,0.00,,2013-07-02 09:01:00,
2013-07-02 03:11:00,70.0,45.0,-100.00,NW,322,5.0,6.0,41,0.00,,,0.00,,2013-07-02 09:11:00,
2013-07-02 03:33:00,65.0,44.0,-100.00,WNW,294,6.0,7.0,47,0.00,,,0.00,,2013-07-02 09:33:00,
2013-07-02 03:43:00,65.0,44.0,-100.00,NNW,330,5.0,6.0,46,0.00,,,0.00,,2013-07-02 09:43:00,
2013-07-02 04:01:00,63.0,45.0,-100.00,NNW,339,7.0,8.0,52,0.00,,,0.00,,2013-07-02 10:01:00,
2013-07-02 04:11:00,62.0,45.0,-100.00,NW,316,5.0,6.0,53,0.00,,,0.00,,2013-07-02 10:11:00,
2013-07-02 04:22:00,63.0,45.0,-100.00,NNW,342,6.0,7.0,51,0.00,,,0.00,,2013-07-02 10:22:00,
2013-07-02 04:33:00,63.0,45.0,-100.00,NNW,342,6.0,7.0,51,0.00,,,0.00,,2013-07-02 10:33:00,
2013-07-02 04:43:00,61.0,46.0,-100.00,NNE,32,4.0,6.0,57,0.00,,,0.00,,2013-07-02 10:43:00,
2013-07-02 05:01:00,60.0,47.0,-100.00,NE,44,6.0,7.0,63,0.00,,,0.00,,2013-07-02 11:01:00,
2013-07-02 05:11:00,60.0,47.0,-100.00,NE,44,6.0,7.0,63,0.00,,,0.00,,2013-07-02 11:11:00,
2013-07-02 05:33:00,61.0,46.0,-100.00,NNE,16,9.0,10.0,58,0.00,,,0.00,,2013-07-02 11:33:00,
2013-07-02 05:42:00,58.0,47.0,-100.00,NNW,342,6.0,7.0,65,0.00,,,0.00,,2013-07-02 11:42:00,
2013-07-02 06:01:00,60.0,46.0,-100.00,NNE,23,6.0,7.0,61,0.00,,,0.00,,2013-07-02 12:01:00,
2013-07-02 06:11:00,59.0,47.0,-100.00,NW,320,4.0,4.0,66,0.00,,,0.00,,2013-07-02 12:11:00,
2013-07-02 06:23:00,61.0,46.0,-100.00,North,10,4.0,5.0,58,0.00,,,0.00,,2013-07-02 12:23:00,
2013-07-02 06:33:00,61.0,46.0,-100.00,North,10,4.0,5.0,58,0.00,,,0.00,,2013-07-02 12:33:00,
2013-07-02 06:43:00,63.0,47.0,-100.00,NE,40,4.0,6.0,57,0.00,,,0.00,,2013-07-02 12:43:00,
2013-07-02 07:01:00,63.0,48.0,-100.00,NE,35,6.0,6.0,57,0.00,,,0.00,,2013-07-02 13:01:00,
2013-07-02 07:11:00,62.0,49.0,-100.00,NNW,340,2.0,2.0,61,0.00,,,0.00,,2013-07-02 13:11:00,
2013-07-02 07:22:00,62.0,49.0,-100.00,NNW,340,2.0,2.0,61,0.00,,,0.00,,2013-07-02 13:22:00,
2013-07-02 07:43:00,64.0,49.0,-100.00,WNW,282,4.0,4.0,58,0.00,,,0.00,,2013-07-02 13:43:00,
2013-07-02 07:52:00,64.0,49.0,-100.00,WNW,282,4.0,4.0,58,0.00,,,0.00,,2013-07-02 13:52:00,
2013-07-02 08:01:00,64.0,49.0,-100.00,WNW,282,4.0,4.0,58,0.00,,,0.00,,2013-07-02 14:01:00,
2013-07-02 08:11:00,64.0,49.0,-100.00,WNW,282,4.0,4.0,58,0.00,,,0.00,,2013-07-02 14:11:00,
2013-07-02 08:33:00,72.0,49.0,-100.00,NNE,27,2.0,3.0,44,0.00,,,0.00,,2013-07-02 14:33:00,
2013-07-02 08:43:00,75.0,49.0,-100.00,NNE,24,2.0,3.0,40,0.00,,,0.00,,2013-07-02 14:43:00,
2013-07-02 09:02:00,75.0,49.0,-100.00,NNE,24,2.0,3.0,40,0.00,,,0.00,,2013-07-02 15:02:00,
2013-07-02 09:11:00,71.0,54.0,-100.00,East,80,5.0,6.0,55,0.00,,,0.00,,2013-07-02 15:11:00,
2013-07-02 09:22:00,71.0,54.0,-100.00,East,80,5.0,6.0,55,0.00,,,0.00,,2013-07-02 15:22:00,
2013-07-02 09:33:00,72.0,56.0,-100.00,East,93,5.0,7.0,56,0.00,,,0.00,,2013-07-02 15:33:00,
2013-07-02 09:44:00,72.0,56.0,-100.00,East,90,6.0,6.0,57,0.00,,,0.00,,2013-07-02 15:44:00,
2013-07-02 09:53:00,72.0,56.0,-100.00,East,90,6.0,6.0,57,0.00,,,0.00,,2013-07-02 15:53:00,
2013-07-02 10:00:00,75.0,57.0,-100.00,SSW,195,4.0,6.0,53,0.00,,,0.00,,2013-07-02 16:00:00,
2013-07-02 10:01:00,72.0,56.0,-100.00,East,90,6.0,6.0,57,0.00,,,0.00,,2013-07-02 16:01:00,
2013-07-02 10:11:00,74.0,57.0,-100.00,SSE,147,3.0,5.0,54,0.00,,,0.00,,2013-07-02 16:11:00,
2013-07-02 10:22:00,74.0,57.0,-100.00,SSE,147,3.0,5.0,54,0.00,,,0.00,,2013-07-02 16:22:00,
2013-07-02 10:33:00,75.0,57.0,-100.00,SSW,195,4.0,6.0,53,0.00,,,0.00,,2013-07-02 16:33:00,
2013-07-02 10:43:00,75.0,57.0,-100.00,SSW,195,4.0,6.0,53,0.00,,,0.00,,2013-07-02 16:43:00,
2013-07-02 10:52:00,75.0,57.0,-100.00,SSW,195,4.0,6.0,53,0.00,,,0.00,,2013-07-02 16:52:00,
2013-07-02 11:33:00,80.0,58.0,-100.00,ESE,120,5.0,6.0,46,0.00,,,0.00,,2013-07-02 17:33:00,
2013-07-02 11:43:00,80.0,58.0,-100.00,ESE,120,5.0,6.0,46,0.00,,,0.00,,2013-07-02 17:43:00,
2013-07-02 11:53:00,80.0,58.0,-100.00,ESE,120,5.0,6.0,46,0.00,,,0.00,,2013-07-02 17:53:00,
2013-07-02 12:02:00,86.0,53.0,-100.00,NNE,16,5.0,7.0,32,0.00,,,0.00,,2013-07-02 18:02:00,
2013-07-02 12:23:00,89.0,50.0,-100.00,NNE,20,4.0,7.0,26,0.00,,,0.00,,2013-07-02 18:23:00,
2013-07-02 12:30:00,85.0,60.0,-100.00,ESE,117,7.0,8.0,43,0.00,,,0.00,,2013-07-02 18:30:00,
2013-07-02 12:34:00,88.0,52.0,-100.00,ENE,69,6.0,8.0,29,0.00,,,0.00,,2013-07-02 18:34:00,
2013-07-02 12:43:00,85.0,59.0,-100.00,ESE,114,6.0,8.0,42,0.00,,,0.00,,2013-07-02 18:43:00,
2013-07-02 13:01:00,85.0,60.0,-100.00,ESE,117,7.0,8.0,43,0.00,,,0.00,,2013-07-02 19:01:00,
2013-07-02 13:11:00,85.0,60.0,-100.00,ESE,117,7.0,8.0,43,0.00,,,0.00,,2013-07-02 19:11:00,
2013-07-02 13:22:00,85.0,60.0,-100.00,ESE,117,7.0,8.0,43,0.00,,,0.00,,2013-07-02 19:22:00,
2013-07-02 13:43:00,89.0,55.0,-100.00,ESE,120,6.0,9.0,32,0.00,,,0.00,,2013-07-02 19:43:00,
2013-07-02 13:53:00,89.0,55.0,-100.00,ESE,120,6.0,9.0,32,0.00,,,0.00,,2013-07-02 19:53:00,
2013-07-02 14:02:00,90.0,50.0,-100.00,ESE,121,8.0,10.0,26,0.00,,,0.00,,2013-07-02 20:02:00,
2013-07-02 14:11:00,90.0,54.0,-100.00,SE,145,4.0,7.0,30,0.00,,,0.00,,2013-07-02 20:11:00,
2013-07-02 14:22:00,90.0,54.0,-100.00,SE,145,4.0,7.0,30,0.00,,,0.00,,2013-07-02 20:22:00,
2013-07-02 14:33:00,90.0,54.0,-100.00,SE,143,7.0,8.0,29,0.00,,,0.00,,2013-07-02 20:33:00,
2013-07-02 14:43:00,90.0,56.0,-100.00,SE,131,6.0,8.0,31,0.00,,,0.00,,2013-07-02 20:43:00,
2013-07-02 15:02:00,91.0,50.0,-100.00,ESE,110,6.0,9.0,25,0.00,,,0.00,,2013-07-02 21:02:00,
2013-07-02 15:11:00,92.0,49.0,-100.00,ESE,119,6.0,8.0,23,0.00,,,0.00,,2013-07-02 21:11:00,
2013-07-02 15:33:00,92.0,52.0,-100.00,SE,124,6.0,7.0,25,0.00,,,0.00,,2013-07-02 21:33:00,
2013-07-02 15:43:00,92.0,52.0,-100.00,SE,124,6.0,7.0,25,0.00,,,0.00,,2013-07-02 21:43:00,
2013-07-02 15:52:00,92.0,52.0,-100.00,SE,124,6.0,7.0,25,0.00,,,0.00,,2013-07-02 21:52:00,
2013-07-02 16:01:00,92.0,57.0,-100.00,South,172,7.0,9.0,31,0.00,,,0.00,,2013-07-02 22:01:00,
2013-07-02 16:22:00,90.0,57.0,-100.00,SSE,154,6.0,7.0,33,0.00,,,0.00,,2013-07-02 22:22:00,
2013-07-02 17:01:00,89.0,56.0,-100.00,SE,130,2.0,3.0,34,0.00,,,0.00,,2013-07-02 23:01:00,
2013-07-02 17:11:00,88.0,61.0,-100.00,SSE,150,2.0,3.0,40,0.00,,,0.00,,2013-07-02 23:11:00,
2013-07-02 17:22:00,88.0,61.0,-100.00,SSE,150,2.0,3.0,40,0.00,,,0.00,,2013-07-02 23:22:00,
2013-07-02 17:33:00,88.0,61.0,-100.00,SSE,150,2.0,3.0,40,0.00,,,0.00,,2013-07-02 23:33:00,
2013-07-02 17:44:00,88.0,57.0,-100.00,ESE,114,3.0,3.0,36,0.00,,,0.00,,2013-07-02 23:44:00,
2013-07-02 17:52:00,88.0,57.0,-100.00,ESE,114,3.0,3.0,36,0.00,,,0.00,,2013-07-02 23:52:00,
2013-07-02 18:01:00,88.0,56.0,-100.00,NE,49,3.0,4.0,34,0.00,,,0.00,,2013-07-03 00:01:00,
2013-07-02 18:22:00,89.0,58.0,-100.00,SE,134,3.0,5.0,35,0.00,,,0.00,,2013-07-03 00:22:00,
2013-07-02 18:33:00,84.0,58.0,-100.00,WSW,243,7.0,9.0,41,0.00,,,0.00,,2013-07-03 00:33:00,
2013-07-02 18:44:00,86.0,56.0,-100.00,WSW,237,5.0,8.0,35,0.00,,,0.00,,2013-07-03 00:44:00,
2013-07-02 18:52:00,86.0,56.0,-100.00,WSW,237,5.0,8.0,35,0.00,,,0.00,,2013-07-03 00:52:00,
2013-07-02 20:12:00,85.0,45.0,-100.00,WNW,295,17.0,21.0,24,0.00,,,0.00,,2013-07-03 02:12:00,
2013-07-02 20:45:00,85.0,45.0,-100.00,NNW,329,22.0,31.0,25,0.00,,,0.00,,2013-07-03 02:45:00,
2013-07-02 20:57:00,85.0,45.0,-100.00,NNW,329,22.0,31.0,25,0.00,,,0.00,,2013-07-03 02:57:00,
2013-07-02 21:02:00,85.0,45.0,-100.00,WNW,287,8.0,9.0,24,0.00,,,0.00,,2013-07-03 03:02:00,
2013-07-02 21:12:00,85.0,45.0,-100.00,WNW,287,8.0,9.0,24,0.00,,,0.00,,2013-07-03 03:12:00,
2013-07-02 21:25:00,85.0,45.0,-100.00,WNW,287,8.0,9.0,24,0.00,,,0.00,,2013-07-03 03:25:00,
2013-07-02 21:34:00,85.0,42.0,-100.00,WNW,288,29.0,36.0,22,0.00,,,0.00,,2013-07-03 03:34:00,
2013-07-02 21:45:00,83.0,48.0,-100.00,SW,229,9.0,12.0,29,0.00,,,0.01,,2013-07-03 03:45:00,
2013-07-02 22:01:00,79.0,48.0,-100.00,WNW,298,13.0,16.0,34,0.00,,,0.01,,2013-07-03 04:01:00,
2013-07-02 22:22:00,80.0,49.0,-100.00,WNW,287,17.0,19.0,34,0.00,,,0.01,,2013-07-03 04:22:00,
2013-07-02 22:33:00,80.0,49.0,-100.00,WNW,287,17.0,19.0,34,0.00,,,0.01,,2013-07-03 04:33:00,
2013-07-02 22:52:00,82.0,46.0,-100.00,NW,319,23.0,29.0,28,0.00,,,0.01,,2013-07-03 04:52:00,
2013-07-02 23:01:00,82.0,46.0,-100.00,NW,319,23.0,29.0,28,0.00,,,0.01,,2013-07-03 05:01:00,
2013-07-02 23:23:00,83.0,45.0,-100.00,WNW,302,25.0,29.0,27,0.00,,,0.01,,2013-07-03 05:23:00,
2013-07-02 23:34:00,81.0,46.0,-100.00,NW,308,28.0,34.0,29,0.00,,,0.01,,2013-07-03 05:34:00,
2013-07-02 23:44:00,81.0,45.0,-100.00,WNW,288,23.0,27.0,28,0.00,,,0.01,,2013-07-03 05:44:00,